Date,TemperatureHighF,TemperatureAvgF,TemperatureLowF,DewpointHighF,DewpointAvgF,DewpointLowF,HumidityHigh,HumidityAvg,HumidityLow,PressureMaxIn,PressureMinIn,WindSpeedMaxMPH,WindSpeedAvgMPH,GustSpeedMaxMPH,PrecipitationSumIn
2013-1-1,57.5,47.1,33.3,40.6,26.3,15.1,95,54,22,30.28,30.13,5,2,15,0.00
2013-1-2,64.3,55.6,49.4,22.9,18.6,15.4,29,23,18,30.19,30.07,6,2,14,0.00
2013-1-3,65.2,56.1,49.2,20.9,16.9,11.7,30,22,14,30.20,30.08,8,2,17,0.00
2013-1-4,66.8,50.0,36.5,30.9,20.7,11.7,78,36,15,30.29,30.18,3,0,6,0.00
2013-1-5,62.7,46.0,31.0,45.5,32.6,22.6,89,63,23,30.32,30.21,3,0,5,0.00
2013-1-6,53.2,47.0,37.5,47.5,44.0,36.1,97,90,70,30.23,30.05,7,1,15,0.10
2013-1-7,63.6,46.3,34.1,44.8,36.8,31.8,98,73,34,30.17,30.05,2,0,5,0.00
2013-1-8,75.9,56.6,44.3,50.8,37.9,24.1,86,52,26,30.14,30.06,4,0,8,0.00
2013-1-9,67.1,53.2,44.9,54.5,44.9,36.3,94,75,42,30.14,30.02,3,0,5,0.00
2013-1-10,54.1,47.4,40.8,47.4,38.8,28.2,92,74,42,30.12,29.95,5,1,12,0.00
2013-1-11,30.5,30.5,30.5,26.0,26.0,26.0,83,83,83,30.19,30.19,0,0,1,0.00
2013-1-13,48.9,42.5,36.1,31.1,29.9,28.3,77,61,48,30.13,30.09,4,1,8,0.00
2013-1-14,51.7,41.9,35.5,8.7,6.8,4.2,31,24,15,30.37,30.27,4,2,18,0.00
2013-1-15,61.7,48.6,37.7,33.9,21.1,9.5,58,34,22,30.47,30.37,4,0,16,0.00
2013-1-16,69.9,58.7,50.5,28.7,25.5,22.3,37,28,18,30.40,30.20,7,3,21,0.00
2013-1-17,67.1,61.3,58.4,20.9,19.4,17.8,22,20,16,30.23,30.17,3,2,17,0.00
2013-1-18,73.7,63.7,52.0,20.6,17.2,14.8,25,17,12,30.16,30.09,5,1,15,0.00
2013-1-19,75.7,66.4,56.9,21.4,15.8,12.3,20,15,9,30.22,30.10,6,2,15,0.00
2013-1-20,76.3,63.8,53.9,18.6,14.4,10.9,20,15,9,30.18,30.06,5,1,13,0.00
2013-1-21,78.3,65.9,49.3,17.2,11.3,5.0,26,13,6,30.14,30.02,6,1,18,0.00
2013-1-22,80.7,60.1,45.8,37.5,21.4,7.0,49,27,7,30.11,30.02,3,0,6,0.00
2013-1-23,79.7,64.4,51.4,39.5,33.1,28.0,46,33,18,30.10,30.03,4,1,9,0.00
2013-1-24,61.3,56.6,51.4,56.2,54.1,50.3,98,92,81,30.20,30.10,3,1,9,0.64
2013-1-25,59.6,56.7,55.2,55.8,53.2,49.6,97,89,70,30.14,30.00,2,0,6,0.48
2013-1-26,66.8,60.7,54.2,59.6,56.3,53.6,99,87,69,29.96,29.91,4,1,6,0.05
2013-1-27,59.2,50.2,39.1,50.6,42.8,30.8,96,77,55,30.06,29.95,6,1,11,0.00
2013-1-28,56.8,46.8,33.0,42.4,34.5,29.8,90,64,44,30.18,30.06,5,1,10,0.00
2013-1-29,59.2,43.0,34.0,42.9,36.2,30.6,91,79,51,30.26,30.18,3,0,7,0.00
2013-1-30,69.5,52.6,35.9,48.6,40.5,33.9,95,68,35,30.37,30.25,5,1,9,0.00
2013-1-31,76.8,54.0,38.6,48.9,39.9,36.5,94,64,25,30.28,30.15,4,1,8,0.00